Погода в Пуэрто-Авентурас

Мексика     20°30′40″N   87°13′51″W
темп.,
°C
ветер,
м/с
пор.,
м/с
влажн.,
%
обл.,
%
осадки,
мм/ч
давл.,
гПа
погр.,
м
15 апреля, чт
чт1501:00+25вюв368625 0.1 1014496
04:00+24вюв368585 0.1 1013432
07:00+24вюв25839 0.1 1013381
10:00+28юв4659100 0.0 10141153
13:00+29ююв56585 0.0 10121294
16:00+29ююв456235 0.0 10101196
19:00+26юв367675 0.0 1011483
22:00+25вюв48777 0.0 1012663
16 апреля, пт
пт1601:00+25юв487678 0.0 1011720
04:00+24юв378013 0.0 1010526
07:00+24юв37780 0.0 1011555
10:00+28ююв57613 0.0 10121094
13:00+30ююв575924 0.0 10101291
16:00+29ююв575920 0.0 10081210
19:00+26ююв47760 0.0 1009795
22:00+25юв478010 0.0 1011651
17 апреля, сб
сб1701:00+25юв487915 0.0 1010800
04:00+25юв587737 0.0 1009878
07:00+26юв597957 0.0 1010993
10:00+28юв59720 0.0 10111115
13:00+30ююв58640 0.1 10101253
16:00+29ююв58687 0.1 10091209
19:00+27юв498437 0.1 1009760
22:00+26вюв498843 0.1 1011710
18 апреля, вс
вс1801:00+26вюв4108725 0.1 1011764
04:00+26юв5108899 0.1 1010839
07:00+26юв598298 0.4 1012898
10:00+29юв587061 0.1 10121106
13:00+30ююв58668 0.1 10111268
16:00+29ююв467023 0.6 10101023
19:00+27юв49800 0.9 1010682
22:00+26ююв3887100 0.1 1012573
19 апреля, пн
пн1901:00+25юв3793100 0.8 1012420
04:00+24юв36949 0.5 1011281
07:00+25ююв379335 0.6 1012406
10:00+28ююв368020 1.1 1013726
13:00+30ююв45645 1.3 10121243
16:00+30юв45673 0.1 10101041
19:00+27юв3685100 0.1 1011504
22:00+26вюв3888100 0.0 1012592